AE7MK-13 Weather Reports


time (UTC)temp
F
wind
direction
speed
knots
gust
knots
rain 1hr
in
rain 24hr
in
rain mn
in
humidity
%
barometer
mb
20260502231003 69 80 1.7 6.1 0.00 0.00 0.00 30 1017.8
20260502230005 69 49 2.6 9.6 0.00 0.00 0.00 30 1017.9
20260502225003 70 82 1.7 4.3 0.00 0.00 0.00 30 1018.0
20260502224003 68 33 4.3 10.4 0.00 0.00 0.00 30 1018.2
20260502223213 69 343 2.6 5.2 0.00 0.00 0.00 28 1018.2
20260502222003 70 23 3.5 8.7 0.00 0.00 0.00 29 1018.3
20260502221003 69 348 1.7 7.8 0.00 0.00 0.00 30 1018.4
20260502220003 69 358 3.5 9.6 0.00 0.00 0.00 30 1018.5
20260502215003 68 62 4.3 10.4 0.00 0.00 0.00 32 1018.5
20260502214003 68 12 4.3 10.4 0.00 0.00 0.00 30 1018.6
20260502213003 68 10 4.3 9.6 0.00 0.00 0.00 29 1018.7
20260502212212 68 2 4.3 8.7 0.00 0.00 0.00 32 1018.8
20260502211003 68 21 3.5 9.6 0.00 0.00 0.00 31 1018.8
20260502210003 68 3 3.5 10.4 0.00 0.00 0.00 31 1018.8
20260502205003 68 11 2.6 7.8 0.00 0.00 0.00 32 1018.9
20260502204003 66 40 5.2 11.3 0.00 0.00 0.00 33 1018.9
20260502203003 67 12 3.5 9.6 0.00 0.00 0.00 32 1019.0
20260502202003 67 43 4.3 9.6 0.00 0.00 0.00 33 1019.2
20260502201003 66 30 4.3 10.4 0.00 0.00 0.00 33 1019.2
20260502200214 66 14 5.2 13.0 0.00 0.00 0.00 33 1019.2
20260502195003 67 18 4.3 13.9 0.00 0.00 0.00 33 1019.3
20260502194214 66 7 5.2 11.3 0.00 0.00 0.00 34 1019.3
20260502193214 65 360 4.3 9.6 0.00 0.00 0.00 32 1019.4
20260502192003 66 27 5.2 12.2 0.00 0.00 0.00 33 1019.4
20260502191003 66 10 5.2 10.4 0.00 0.00 0.00 34 1019.4
20260502190004 65 7 5.2 9.6 0.00 0.00 0.00 37 1019.3
20260502185003 65 358 5.2 12.2 0.00 0.00 0.00 33 1019.4
20260502184003 64 7 7.0 13.0 0.00 0.00 0.00 34 1019.3
20260502183003 64 13 7.0 14.8 0.00 0.00 0.00 35 1019.3
20260502182003 64 10 7.8 13.9 0.00 0.00 0.00 36 1019.2
20260502181213 64 7 7.0 13.0 0.00 0.00 0.00 38 1019.2
20260502180213 64 6 7.8 13.0 0.00 0.00 0.00 38 1019.1
20260502164003 61 360 7.0 12.2 0.00 0.00 0.00 40 1018.7
20260502163003 60 3 6.1 13.0 0.00 0.00 0.00 40 1018.7
20260502162003 60 5 7.8 13.0 0.00 0.00 0.00 39 1018.7
20260502161003 61 357 7.0 13.0 0.00 0.00 0.00 39 1018.7
20260502152214 60 3 3.5 7.8 0.00 0.00 0.00 44 1018.7
20260502151003 58 11 0.0 0.9 0.00 0.00 0.00 46 1018.9
20260502123003 57 9 6.1 10.4 0.00 0.00 0.00 45 1017.5
20260502122003 57 15 6.1 12.2 0.00 0.00 0.00 46 1017.5
20260502121213 56 10 7.0 12.2 0.00 0.00 0.00 47 1017.8
20260502115003 54 342 2.6 6.1 0.00 0.00 0.00 51 1018.2
20260502114003 54 325 1.7 5.2 0.00 0.00 0.00 53 1018.3
20260502113003 54 317 1.7 6.1 0.00 0.00 0.00 52 1018.4
20260502112213 55 313 1.7 7.8 0.00 0.00 0.00 51 1018.4
20260502111213 54 340 0.9 5.2 0.00 0.00 0.00 53 1018.3
20260502110003 54 347 2.6 5.2 0.00 0.00 0.00 56 1018.2
20260502105214 54 335 1.7 5.2 0.00 0.00 0.00 55 1018.2
20260502104003 54 329 1.7 5.2 0.00 0.00 0.00 54 1018.2
20260502103003 55 359 2.6 7.0 0.00 0.00 0.00 53 1018.2
20260502101003 55 297 7.0 7.8 0.00 0.00 0.00 50 1018.4
20260502091214 51 327 1.7 3.5 0.00 0.00 0.00 58 1018.1
20260502071003 49 330 3.5 5.2 0.00 0.00 0.00 60 1018.2
20260502070003 49 328 2.6 4.3 0.00 0.00 0.00 61 1018.1
20260502065003 49 336 2.6 5.2 0.00 0.00 0.00 60 1018.1
20260502064003 49 334 3.5 6.1 0.00 0.00 0.00 59 1018.1
20260502063003 50 335 4.3 5.2 0.00 0.00 0.00 58 1018.1
20260502062003 51 334 2.6 5.2 0.00 0.00 0.00 55 1018.2
20260502061003 51 332 2.6 5.2 0.00 0.00 0.00 55 1018.1
20260502060003 51 326 3.5 4.3 0.00 0.00 0.00 55 1018.0
20260502055003 50 324 3.5 5.2 0.00 0.00 0.00 57 1018.1
20260502054003 50 323 0.9 3.5 0.00 0.00 0.00 57 1018.1
20260502053003 50 334 2.6 4.3 0.00 0.00 0.00 56 1018.1
20260502052213 51 334 2.6 4.3 0.00 0.00 0.00 55 1018.1
20260502051003 51 328 2.6 5.2 0.00 0.00 0.00 55 1018.0
20260502050004 50 336 4.3 6.1 0.00 0.00 0.00 57 1018.1
20260502045212 51 335 3.5 5.2 0.00 0.00 0.00 55 1018.2
20260502044005 50 335 3.5 4.3 0.00 0.00 0.00 55 1018.2
20260502043003 50 333 3.5 5.2 0.00 0.00 0.00 56 1018.1
20260502042003 51 335 2.6 5.2 0.00 0.00 0.00 54 1018.1
20260502041003 52 335 3.5 5.2 0.00 0.00 0.00 55 1017.8
20260502040003 52 335 2.6 3.5 0.00 0.00 0.00 53 1017.8
20260502035214 53 332 2.6 4.3 0.00 0.00 0.00 52 1017.7
20260502034003 53 331 3.5 5.2 0.00 0.00 0.00 54 1017.6
20260502033003 56 326 1.7 3.5 0.00 0.00 0.00 50 1017.6
20260502032003 55 326 1.7 3.5 0.00 0.00 0.00 51 1017.5
20260502031004 57 0 0.0 0.0 0.00 0.00 0.00 47 1017.5
20260502030003 58 0 0.0 0.0 0.00 0.00 0.00 47 1017.4
20260502025213 59 91 0.0 0.9 0.00 0.00 0.00 47 1017.4
20260502024213 59 0 0.0 0.0 0.00 0.00 0.00 44 1017.4
20260502023003 60 89 0.0 0.9 0.00 0.00 0.00 43 1017.3
20260502022004 60 0 0.0 0.0 0.00 0.00 0.00 42 1017.3
20260502021003 61 123 0.0 2.6 0.00 0.00 0.00 40 1017.3
20260502020213 62 0 0.0 0.0 0.00 0.00 0.00 39 1017.3
20260502015003 62 102 0.9 2.6 0.00 0.00 0.00 39 1017.3
20260502014003 62 119 0.9 2.6 0.00 0.00 0.00 40 1017.4
20260502013003 62 149 2.6 4.3 0.00 0.00 0.00 39 1017.5
20260502012003 62 151 3.5 6.1 0.00 0.00 0.00 38 1017.5
20260502011003 62 138 3.5 7.8 0.00 0.00 0.00 38 1017.5
20260502010003 63 133 2.6 7.0 0.00 0.00 0.00 37 1017.6
20260502005003 63 130 3.5 7.8 0.00 0.00 0.00 36 1017.6
20260502004004 64 102 1.7 5.2 0.00 0.00 0.00 35 1017.5
20260502003003 64 142 1.7 5.2 0.00 0.00 0.00 35 1017.6
20260502002003 64 147 1.7 7.0 0.00 0.00 0.00 34 1017.7
20260502001003 64 208 0.9 4.3 0.00 0.00 0.00 35 1017.8
20260502000004 64 153 2.6 6.1 0.00 0.00 0.00 34 1017.9
20260501235003 64 157 3.5 6.1 0.00 0.00 0.00 35 1017.9
20260501234212 64 124 2.6 7.0 0.00 0.00 0.00 34 1017.9
20260501233003 63 112 2.6 7.0 0.00 0.00 0.00 34 1018.0
20260501232212 63 136 2.6 6.1 0.00 0.00 0.00 34 1018.1